This is the latest recevied weather packets stored in our database for station/object W7TRD. If no packets are shown the sender has not sent any weather packets the latest 10 day(s).
| Time | Temp. | Humidity | Pressure | Rain* | Wind** | Luminosity | Snow |
|---|---|---|---|---|---|---|---|
| 1788360821 | 16.67° C | 74% | 1008.6 hPa | 0 mm | - | 50 W/m² | - |
| 1788360517 | 16.67° C | 74% | 1008.4 hPa | 0 mm | - | 45 W/m² | - |
| 1788360213 | 16.67° C | 75% | 1008.6 hPa | 0 mm | - | 43 W/m² | - |
| 1788359907 | 16.67° C | 75% | 1008.7 hPa | 0 mm | - | 36 W/m² | - |
| 1788359602 | 16.67° C | 75% | 1008.5 hPa | 0 mm | - | 40 W/m² | - |
| 1788359298 | 16.11° C | 75% | 1008.6 hPa | 0 mm | - | 42 W/m² | - |
| 1788358994 | 16.11° C | 76% | 1008.7 hPa | 0 mm | - | 31 W/m² | - |
| 1788358689 | 16.11° C | 76% | 1008.9 hPa | 0 mm | - | 22 W/m² | - |
| 1788358385 | 16.11° C | 76% | 1008.9 hPa | 0 mm | - | 13 W/m² | - |
| 1788358084 | 16.11° C | 76% | 1008.9 hPa | 0 mm | - | 9 W/m² | - |
| 1788357779 | 16.11° C | 76% | 1009 hPa | 0 mm | - | 9 W/m² | - |
| 1788357478 | 16.11° C | 76% | 1009.1 hPa | 0 mm | - | 6 W/m² | - |
| 1788357174 | 16.11° C | 75% | 1009 hPa | 0 mm | - | 5 W/m² | - |
| 1788356874 | 16.11° C | 75% | 1009.5 hPa | 0 mm | - | 5 W/m² | - |
| 1788356569 | 16.11° C | 75% | 1009.5 hPa | 0 mm | - | 3 W/m² | - |
| 1788356264 | 16.11° C | 75% | 1009.5 hPa | 0 mm | - | 2 W/m² | - |
| 1788355987 | 16.11° C | 75% | 1009.6 hPa | 0 mm | - | 1 W/m² | - |
| 1788355659 | 16.11° C | 75% | 1009.5 hPa | 0 mm | - | 0 W/m² | - |
| 1788355355 | 16.11° C | 75% | 1009.6 hPa | 0 mm | - | 0 W/m² | - |
| 1788355050 | 16.11° C | 75% | 1009.7 hPa | 0 mm | - | 0 W/m² | - |
| 1788354746 | 16.11° C | 75% | 1009.7 hPa | 0 mm | - | 0 W/m² | - |
| 1788354446 | 16.11° C | 75% | 1009.5 hPa | 0 mm | - | 0 W/m² | - |
| 1788354142 | 16.11° C | 75% | 1009.8 hPa | 0 mm | - | 0 W/m² | - |
| 1788353837 | 16.11° C | 75% | 1009.9 hPa | 0 mm | - | 0 W/m² | - |
| 1788353533 | 16.11° C | 76% | 1010 hPa | 0 mm | - | 0 W/m² | - |
* Rain latest hour (hover to see other rain measurements)
** Current wind speed in m/s (hover to see current wind gust speed)